• In Hungary
  • List of Countries
  • For 7 days
  • Water Temperature
  • Satellite Maps
  • Weather Map
  • News
  • Weather Widgets
  • user-avatar
    Login

    Hourly Weather La Massana

    Today, 20 November, Monday

    Time Temperature Precipitation Wind Pressure Humidity
    00:00 -2°C° 0 mm 2 mps 612 mmHg 59%
    01:00 -2°C° 0 mm 2 mps 612 mmHg 59%
    02:00 -2°C° 0 mm 2 mps 612 mmHg 60%
    03:00 -2°C° 0 mm 2 mps 612 mmHg 60%
    04:00 -2°C° 0 mm 2 mps 612 mmHg 60%
    05:00 -2°C° 0 mm 2 mps 612 mmHg 59%
    06:00 -2°C° 0 mm 2 mps 612 mmHg 60%
    07:00 +1°C° 0 mm 2 mps 613 mmHg 56%
    08:00 +3°C° 0 mm 1 mps 614 mmHg 52%
    09:00 +5°C° 0 mm 1 mps 615 mmHg 48%
    10:00 +7°C° 0 mm 1 mps 615 mmHg 45%
    11:00 +8°C° 0 mm 1 mps 616 mmHg 41%
    12:00 +9°C° 0 mm 1 mps 616 mmHg 39%
    13:00 +9°C° 0 mm 1 mps 616 mmHg 42%
    14:00 +9°C° 0 mm 1 mps 615 mmHg 45%
    15:00 +8°C° 0 mm 1 mps 615 mmHg 48%
    16:00 +6°C° 0 mm 1 mps 614 mmHg 53%
    17:00 +4°C° 0 mm 1 mps 613 mmHg 58%
    18:00 +2°C° 0 mm 1 mps 612 mmHg 63%
    19:00 +2°C° 0 mm 1 mps 612 mmHg 62%
    20:00 +2°C° 0 mm 1 mps 612 mmHg 60%
    21:00 +2°C° 0 mm 1 mps 612 mmHg 59%
    22:00 +2°C° 0 mm 1 mps 612 mmHg 58%
    23:00 +2°C° 0 mm 1 mps 612 mmHg 58%

    Tomorrow, 21 November, Tuesday

    Time Temperature Precipitation Wind Pressure Humidity
    00:00 +2°C° 0 mm 1 mps 612 mmHg 57%
    01:00 +2°C° 0 mm 1 mps 612 mmHg 56%
    02:00 +2°C° 0 mm 1 mps 612 mmHg 56%
    03:00 +2°C° 0 mm 1 mps 612 mmHg 55%
    04:00 +2°C° 0 mm 1 mps 612 mmHg 53%
    05:00 +1°C° 0 mm 1 mps 611 mmHg 52%
    06:00 +1°C° 0 mm 1 mps 611 mmHg 51%
    07:00 +3°C° 0 mm 1 mps 612 mmHg 47%
    08:00 +5°C° 0 mm 1 mps 613 mmHg 43%
    09:00 +6°C° 0 mm 0 mps 614 mmHg 39%
    10:00 +8°C° 0 mm 1 mps 615 mmHg 35%
    11:00 +10°C° 0 mm 1 mps 615 mmHg 32%
    12:00 +11°C° 0 mm 1 mps 615 mmHg 29%
    13:00 +11°C° 0 mm 1 mps 615 mmHg 33%
    14:00 +10°C° 0 mm 1 mps 614 mmHg 38%
    15:00 +9°C° 0 mm 1 mps 613 mmHg 42%
    16:00 +7°C° 0 mm 1 mps 613 mmHg 47%
    17:00 +5°C° 0 mm 1 mps 612 mmHg 51%
    18:00 +3°C° 0 mm 1 mps 611 mmHg 56%
    19:00 +3°C° 0 mm 1 mps 611 mmHg 55%
    20:00 +3°C° 0 mm 1 mps 610 mmHg 55%
    21:00 +2°C° 0 mm 1 mps 610 mmHg 55%
    22:00 +2°C° 0 mm 1 mps 610 mmHg 54%
    23:00 +2°C° 0 mm 1 mps 610 mmHg 53%

    Day after tomorrow, 22 November, Wednesday

    Time Temperature Precipitation Wind Pressure Humidity
    00:00 +2°C° 0 mm 1 mps 610 mmHg 52%
    01:00 +2°C° 0 mm 1 mps 609 mmHg 50%
    02:00 +2°C° 0 mm 1 mps 609 mmHg 48%
    03:00 +1°C° 0 mm 1 mps 609 mmHg 46%
    04:00 +1°C° 0 mm 1 mps 609 mmHg 44%
    05:00 +1°C° 0 mm 1 mps 608 mmHg 41%
    06:00 +1°C° 0 mm 1 mps 608 mmHg 39%
    07:00 +3°C° 0 mm 1 mps 609 mmHg 38%
    08:00 +5°C° 0 mm 1 mps 610 mmHg 37%
    09:00 +5°C° 0 mm 2 mps 611 mmHg 36%
    10:00 +7°C° 0 mm 2 mps 611 mmHg 34%
    11:00 +8°C° 0 mm 2 mps 611 mmHg 32%
    12:00 +10°C° 0 mm 2 mps 612 mmHg 30%
    13:00 +9°C° 0 mm 2 mps 611 mmHg 33%
    14:00 +8°C° 0 mm 2 mps 611 mmHg 36%
    15:00 +8°C° 0 mm 2 mps 610 mmHg 39%
    16:00 +6°C° 0 mm 2 mps 610 mmHg 42%
    17:00 +4°C° 0 mm 1 mps 609 mmHg 45%
    18:00 +2°C° 0 mm 1 mps 608 mmHg 48%
    19:00 +2°C° 0 mm 1 mps 608 mmHg 46%
    20:00 +2°C° 0 mm 1 mps 608 mmHg 43%
    21:00 +2°C° 0 mm 1 mps 608 mmHg 41%
    22:00 +2°C° 0 mm 1 mps 608 mmHg 41%
    23:00 +1°C° 0 mm 2 mps 608 mmHg 41%

    23 November, Thursday

    Time Temperature Precipitation Wind Pressure Humidity
    00:00 +1°C° 0 mm 2 mps 609 mmHg 41%
    01:00 +2°C° 0 mm 1 mps 609 mmHg 43%
    02:00 +2°C° 0 mm 1 mps 609 mmHg 46%
    03:00 +2°C° 0 mm 1 mps 609 mmHg 48%
    04:00 +2°C° 0 mm 1 mps 609 mmHg 50%
    05:00 +2°C° 0 mm 1 mps 609 mmHg 51%
    06:00 +2°C° 0 mm 1 mps 609 mmHg 53%
    07:00 +4°C° 0 mm 1 mps 610 mmHg 51%
    08:00 +5°C° 0 mm 1 mps 612 mmHg 49%
    09:00 +7°C° 0 mm 1 mps 613 mmHg 48%
    10:00 +8°C° 0 mm 1 mps 613 mmHg 47%
    11:00 +8°C° 0 mm 2 mps 614 mmHg 46%
    12:00 +10°C° 0 mm 2 mps 614 mmHg 45%
    13:00 +9°C° 0 mm 2 mps 614 mmHg 49%
    14:00 +9°C° 0 mm 2 mps 613 mmHg 53%
    15:00 +8°C° 0 mm 2 mps 613 mmHg 57%
    16:00 +6°C° 0 mm 2 mps 612 mmHg 62%
    17:00 +5°C° 0 mm 2 mps 612 mmHg 68%
    18:00 +4°C° 0 mm 1 mps 611 mmHg 74%
    19:00 +4°C° 0 mm 1 mps 612 mmHg 73%
    20:00 +4°C° 0 mm 1 mps 612 mmHg 71%
    21:00 +4°C° 0 mm 1 mps 612 mmHg 70%
    22:00 +4°C° 0 mm 1 mps 612 mmHg 70%
    23:00 +4°C° 0 mm 1 mps 612 mmHg 69%

    24 November, Friday

    Time Temperature Precipitation Wind Pressure Humidity
    00:00 +4°C° 0 mm 1 mps 612 mmHg 69%
    01:00 +3°C° 0 mm 1 mps 612 mmHg 69%
    02:00 +3°C° 0 mm 1 mps 612 mmHg 68%
    03:00 +3°C° 0 mm 1 mps 612 mmHg 68%
    04:00 +3°C° 0 mm 1 mps 612 mmHg 66%
    05:00 +3°C° 0 mm 1 mps 612 mmHg 63%
    06:00 +3°C° 0 mm 1 mps 612 mmHg 61%
    07:00 +3°C° 0 mm 2 mps 612 mmHg 57%
    08:00 +5°C° 0 mm 2 mps 613 mmHg 52%
    09:00 +6°C° 0 mm 2 mps 614 mmHg 47%
    10:00 +7°C° 0 mm 2 mps 614 mmHg 44%
    11:00 +9°C° 0 mm 3 mps 614 mmHg 41%
    12:00 +10°C° 0 mm 3 mps 615 mmHg 38%
    13:00 +9°C° 0 mm 3 mps 614 mmHg 41%
    14:00 +9°C° 0 mm 3 mps 614 mmHg 43%
    15:00 +8°C° 0 mm 3 mps 613 mmHg 46%
    16:00 +6°C° 0 mm 2 mps 612 mmHg 51%
    17:00 +5°C° 0 mm 2 mps 612 mmHg 55%
    18:00 +3°C° 0 mm 2 mps 611 mmHg 60%
    19:00 +3°C° 0 mm 2 mps 611 mmHg 62%
    20:00 +3°C° 0 mm 2 mps 611 mmHg 63%
    21:00 +2°C° 0 mm 2 mps 611 mmHg 65%
    22:00 +2°C° 0 mm 2 mps 611 mmHg 62%
    23:00 +2°C° 0 mm 2 mps 611 mmHg 59%

    25 November, Saturday

    Time Temperature Precipitation Wind Pressure Humidity
    00:00 +2°C° 0 mm 2 mps 611 mmHg 56%
    01:00 +2°C° 0 mm 2 mps 611 mmHg 54%
    02:00 +1°C° 0 mm 2 mps 610 mmHg 52%
    03:00 +1°C° 0 mm 2 mps 610 mmHg 51%
    04:00 +1°C° 0 mm 2 mps 610 mmHg 50%
    05:00 +1°C° 0 mm 2 mps 610 mmHg 50%
    06:00 +1°C° 0 mm 2 mps 610 mmHg 49%
    07:00 +2°C° 0 mm 2 mps 611 mmHg 47%
    08:00 +4°C° 0 mm 2 mps 612 mmHg 44%
    09:00 +5°C° 0 mm 2 mps 613 mmHg 42%
    10:00 +7°C° 0 mm 2 mps 613 mmHg 41%
    11:00 +8°C° 0 mm 2 mps 614 mmHg 41%
    12:00 +9°C° 0 mm 2 mps 614 mmHg 40%
    13:00 +8°C° 0 mm 2 mps 614 mmHg 44%
    14:00 +8°C° 0 mm 2 mps 614 mmHg 47%
    15:00 +7°C° 0 mm 2 mps 614 mmHg 51%
    16:00 +6°C° 0 mm 1 mps 613 mmHg 57%
    17:00 +5°C° 0 mm 1 mps 613 mmHg 64%
    18:00 +3°C° 0 mm 1 mps 612 mmHg 70%
    19:00 +3°C° 0.1 mm 1 mps 613 mmHg 70%
    20:00 +3°C° 0.1 mm 1 mps 613 mmHg 71%
    21:00 +3°C° 0.1 mm 1 mps 614 mmHg 71%
    22:00 +3°C° 0.4 mm 1 mps 614 mmHg 75%
    23:00 +3°C° 0.4 mm 1 mps 614 mmHg 78%
    Show more